When you browse on this site, cookies collect data to enhance your experience and personalize the content and advertising you see.
Visit our Privacy Policy to learn more. By continuing to use the site, you agree to this use of cookies and data.
  • In Hungary
  • List of Countries
  • For 7 days
  • Water Temperature
  • Satellite Maps
  • Weather Map
  • News
  • Weather Widgets
  • user-avatar
    Login

    Hourly Weather Karsiyang

    Today, 26 April, Friday

    Time Temperature Precipitation Wind Pressure Humidity
    00:00 +18°C° 0 mm 2 mps 634 mmHg 65%
    01:00 +18°C° 0 mm 2 mps 634 mmHg 63%
    02:00 +18°C° 0 mm 2 mps 634 mmHg 61%
    03:00 +17°C° 0 mm 2 mps 633 mmHg 59%
    04:00 +17°C° 0 mm 2 mps 633 mmHg 58%
    05:00 +17°C° 0 mm 2 mps 633 mmHg 56%
    06:00 +17°C° 0 mm 2 mps 633 mmHg 56%
    07:00 +19°C° 0 mm 2 mps 634 mmHg 53%
    08:00 +21°C° 0 mm 2 mps 635 mmHg 49%
    09:00 +24°C° 0 mm 2 mps 635 mmHg 45%
    10:00 +25°C° 0 mm 2 mps 635 mmHg 46%
    11:00 +26°C° 0 mm 2 mps 635 mmHg 46%
    12:00 +27°C° 0 mm 2 mps 636 mmHg 46%
    13:00 +27°C° 0.7 mm 2 mps 636 mmHg 47%
    14:00 +27°C° 0.7 mm 2 mps 635 mmHg 49%
    15:00 +27°C° 0.7 mm 2 mps 635 mmHg 50%
    16:00 +26°C° 1.8 mm 2 mps 634 mmHg 54%
    17:00 +25°C° 1.8 mm 1 mps 634 mmHg 59%
    18:00 +24°C° 1.8 mm 1 mps 634 mmHg 63%
    19:00 +22°C° 1.2 mm 1 mps 633 mmHg 67%
    20:00 +21°C° 1.2 mm 1 mps 633 mmHg 71%
    21:00 +19°C° 1.2 mm 2 mps 633 mmHg 76%
    22:00 +19°C° 0 mm 2 mps 633 mmHg 75%
    23:00 +18°C° 0 mm 2 mps 633 mmHg 74%

    Tomorrow, 27 April, Saturday

    Time Temperature Precipitation Wind Pressure Humidity
    00:00 +18°C° 0 mm 2 mps 633 mmHg 73%
    01:00 +18°C° 0 mm 2 mps 633 mmHg 71%
    02:00 +18°C° 0 mm 2 mps 632 mmHg 69%
    03:00 +17°C° 0 mm 2 mps 632 mmHg 67%
    04:00 +17°C° 0 mm 2 mps 632 mmHg 66%
    05:00 +17°C° 0 mm 2 mps 632 mmHg 65%
    06:00 +17°C° 0 mm 2 mps 632 mmHg 64%
    07:00 +19°C° 0 mm 2 mps 633 mmHg 60%
    08:00 +21°C° 0 mm 2 mps 634 mmHg 56%
    09:00 +24°C° 0 mm 2 mps 635 mmHg 52%
    10:00 +25°C° 0.6 mm 2 mps 635 mmHg 51%
    11:00 +26°C° 0.6 mm 2 mps 635 mmHg 51%
    12:00 +27°C° 0.6 mm 3 mps 636 mmHg 51%
    13:00 +27°C° 1.8 mm 2 mps 635 mmHg 52%
    14:00 +27°C° 1.8 mm 2 mps 634 mmHg 53%
    15:00 +27°C° 1.8 mm 2 mps 634 mmHg 55%
    16:00 +26°C° 2.4 mm 2 mps 633 mmHg 58%
    17:00 +25°C° 2.4 mm 1 mps 633 mmHg 62%
    18:00 +24°C° 2.4 mm 1 mps 632 mmHg 65%
    19:00 +23°C° 1 mm 1 mps 633 mmHg 67%
    20:00 +21°C° 1 mm 2 mps 633 mmHg 69%
    21:00 +20°C° 1 mm 2 mps 633 mmHg 70%
    22:00 +19°C° 0 mm 2 mps 633 mmHg 68%
    23:00 +19°C° 0 mm 2 mps 633 mmHg 67%

    Day after tomorrow, 28 April, Sunday

    Time Temperature Precipitation Wind Pressure Humidity
    00:00 +19°C° 0 mm 2 mps 632 mmHg 65%
    01:00 +18°C° 0 mm 2 mps 632 mmHg 64%
    02:00 +18°C° 0 mm 2 mps 632 mmHg 63%
    03:00 +18°C° 0 mm 2 mps 632 mmHg 62%
    04:00 +18°C° 0 mm 2 mps 632 mmHg 61%
    05:00 +17°C° 0 mm 2 mps 632 mmHg 61%
    06:00 +17°C° 0 mm 2 mps 632 mmHg 60%
    07:00 +20°C° 0 mm 2 mps 633 mmHg 55%
    08:00 +23°C° 0 mm 2 mps 634 mmHg 50%
    09:00 +26°C° 0 mm 3 mps 635 mmHg 45%
    10:00 +26°C° 0.6 mm 3 mps 635 mmHg 48%
    11:00 +26°C° 0.6 mm 3 mps 635 mmHg 51%
    12:00 +27°C° 0.6 mm 3 mps 635 mmHg 54%
    13:00 +26°C° 2 mm 3 mps 634 mmHg 56%
    14:00 +26°C° 2 mm 3 mps 634 mmHg 59%
    15:00 +26°C° 2 mm 2 mps 633 mmHg 62%
    16:00 +25°C° 2.8 mm 2 mps 632 mmHg 66%
    17:00 +24°C° 2.8 mm 2 mps 632 mmHg 69%
    18:00 +23°C° 2.8 mm 2 mps 632 mmHg 73%
    19:00 +21°C° 1.4 mm 2 mps 632 mmHg 74%
    20:00 +20°C° 1.4 mm 2 mps 632 mmHg 74%
    21:00 +19°C° 1.4 mm 3 mps 633 mmHg 75%
    22:00 +19°C° 0 mm 3 mps 632 mmHg 73%
    23:00 +18°C° 0 mm 2 mps 632 mmHg 72%

    29 April, Monday

    Time Temperature Precipitation Wind Pressure Humidity
    00:00 +18°C° 0 mm 2 mps 632 mmHg 70%
    01:00 +18°C° 0.2 mm 2 mps 632 mmHg 69%
    02:00 +18°C° 0.2 mm 2 mps 631 mmHg 69%
    03:00 +17°C° 0.2 mm 2 mps 631 mmHg 68%
    04:00 +17°C° 0 mm 2 mps 631 mmHg 68%
    05:00 +17°C° 0 mm 2 mps 632 mmHg 68%
    06:00 +17°C° 0 mm 2 mps 632 mmHg 68%
    07:00 +19°C° 0 mm 2 mps 633 mmHg 65%
    08:00 +21°C° 0 mm 3 mps 634 mmHg 63%
    09:00 +22°C° 0 mm 3 mps 635 mmHg 61%
    10:00 +24°C° 0.9 mm 3 mps 635 mmHg 60%
    11:00 +25°C° 0.9 mm 3 mps 635 mmHg 59%
    12:00 +26°C° 0.9 mm 3 mps 635 mmHg 59%
    13:00 +26°C° 2.2 mm 3 mps 634 mmHg 60%
    14:00 +26°C° 2.2 mm 3 mps 634 mmHg 61%
    15:00 +25°C° 2.2 mm 2 mps 633 mmHg 63%
    16:00 +25°C° 1.7 mm 2 mps 633 mmHg 66%
    17:00 +24°C° 1.7 mm 2 mps 632 mmHg 69%
    18:00 +23°C° 1.7 mm 1 mps 632 mmHg 71%
    19:00 +21°C° 1.6 mm 2 mps 632 mmHg 74%
    20:00 +20°C° 1.6 mm 2 mps 632 mmHg 77%
    21:00 +19°C° 1.6 mm 2 mps 633 mmHg 79%
    22:00 +19°C° 0.8 mm 2 mps 633 mmHg 77%
    23:00 +18°C° 0.8 mm 2 mps 632 mmHg 76%

    30 April, Tuesday

    Time Temperature Precipitation Wind Pressure Humidity
    00:00 +18°C° 0.8 mm 2 mps 632 mmHg 74%
    01:00 +18°C° 0.5 mm 2 mps 632 mmHg 74%
    02:00 +17°C° 0.5 mm 2 mps 631 mmHg 73%
    03:00 +18°C° 0.5 mm 1 mps 631 mmHg 73%
    04:00 +17°C° 0.1 mm 2 mps 631 mmHg 72%
    05:00 +17°C° 0.1 mm 2 mps 632 mmHg 71%
    06:00 +16°C° 0.1 mm 2 mps 632 mmHg 70%
    07:00 +18°C° 0.2 mm 2 mps 633 mmHg 67%
    08:00 +20°C° 0.2 mm 2 mps 634 mmHg 64%
    09:00 +22°C° 0.2 mm 3 mps 635 mmHg 61%
    10:00 +24°C° 0.8 mm 3 mps 635 mmHg 61%
    11:00 +25°C° 0.8 mm 3 mps 635 mmHg 61%
    12:00 +25°C° 0.8 mm 3 mps 635 mmHg 60%
    13:00 +25°C° 1.6 mm 3 mps 634 mmHg 61%
    14:00 +25°C° 1.6 mm 3 mps 633 mmHg 62%
    15:00 +25°C° 1.6 mm 3 mps 632 mmHg 63%
    16:00 +25°C° 2.2 mm 2 mps 632 mmHg 66%
    17:00 +24°C° 2.2 mm 2 mps 632 mmHg 69%
    18:00 +23°C° 2.2 mm 2 mps 631 mmHg 72%
    19:00 +21°C° 0.9 mm 2 mps 631 mmHg 72%
    20:00 +20°C° 0.9 mm 2 mps 632 mmHg 72%
    21:00 +19°C° 0.9 mm 3 mps 632 mmHg 72%
    22:00 +18°C° 0.4 mm 2 mps 632 mmHg 72%
    23:00 +18°C° 0.4 mm 2 mps 632 mmHg 72%

    1 May, Wednesday

    Time Temperature Precipitation Wind Pressure Humidity
    00:00 +18°C° 0.4 mm 1 mps 632 mmHg 72%
    01:00 +18°C° 0.6 mm 1 mps 631 mmHg 73%
    02:00 +17°C° 0.6 mm 2 mps 631 mmHg 73%
    03:00 +16°C° 0.6 mm 2 mps 631 mmHg 73%
    04:00 +16°C° 0.7 mm 2 mps 631 mmHg 74%
    05:00 +16°C° 0.7 mm 2 mps 631 mmHg 74%
    06:00 +16°C° 0.7 mm 2 mps 631 mmHg 74%
    07:00 +18°C° 0.2 mm 2 mps 632 mmHg 69%
    08:00 +20°C° 0.2 mm 2 mps 633 mmHg 65%
    09:00 +23°C° 0.2 mm 2 mps 634 mmHg 60%
    10:00 +24°C° 1 mm 3 mps 634 mmHg 58%
    11:00 +25°C° 1 mm 3 mps 634 mmHg 57%
    12:00 +26°C° 1 mm 3 mps 634 mmHg 55%
    13:00 +26°C° 2.3 mm 3 mps 634 mmHg 57%
    14:00 +26°C° 2.3 mm 3 mps 633 mmHg 59%
    15:00 +26°C° 2.3 mm 2 mps 632 mmHg 61%
    16:00 +25°C° 2.7 mm 2 mps 632 mmHg 64%
    17:00 +24°C° 2.7 mm 2 mps 631 mmHg 67%
    18:00 +23°C° 2.7 mm 1 mps 631 mmHg 70%
    19:00 +21°C° 1.5 mm 2 mps 631 mmHg 73%
    20:00 +20°C° 1.5 mm 2 mps 631 mmHg 75%
    21:00 +18°C° 1.5 mm 3 mps 632 mmHg 77%
    22:00 +18°C° 0.3 mm 2 mps 632 mmHg 76%
    23:00 +17°C° 0.3 mm 2 mps 632 mmHg 74%
    Show more